FW4059 Weather Reports


time (UTC)temp
C
wind
direction
speed
KPH
gust
KPH
rain 1hr
cm
rain 24hr
cm
rain mn
cm
humidity
%
barometer
mb
20260507140047 8 108 0.0 3.2 0.00 0.00 0.00 76 1014.5
20260507134501 8 71 0.0 0.0 0.00 0.00 0.00 74 1014.5
20260507133019 8 118 0.0 1.6 0.00 0.00 0.00 78 1014.7
20260507131528 7 90 0.0 0.0 0.00 0.00 0.00 81 1014.7
20260507130050 7 278 0.0 1.6 0.00 0.00 0.00 87 1014.8
20260507124513 6 228 0.0 1.6 0.00 0.00 0.00 97 1014.8
20260507123024 5 106 0.0 0.0 0.00 0.00 0.00 98 1014.9
20260507121553 4 230 0.0 0.0 0.00 0.00 0.00 98 1014.8
20260507120011 3 230 0.0 0.0 0.00 0.00 0.00 97 1014.9
20260507114539 3 230 0.0 0.0 0.00 0.00 0.00 97 1014.8
20260507113056 3 230 0.0 1.6 0.00 0.00 0.00 97 1015.2
20260507111517 4 226 0.0 0.0 0.00 0.00 0.00 98 1015.1
20260507110039 3 228 0.0 0.0 0.00 0.00 0.00 98 1014.9
20260507104552 3 177 0.0 0.0 0.00 0.00 0.00 98 1014.5
20260507103017 3 177 0.0 0.0 0.00 0.00 0.00 98 1014.4
20260507101528 3 177 0.0 0.0 0.00 0.00 0.00 97 1013.9
20260507100050 3 177 0.0 0.0 0.00 0.00 0.00 98 1014.0
20260507094512 3 250 0.0 0.0 0.00 0.00 0.00 98 1014.3
20260507093028 3 250 0.0 0.0 0.00 0.00 0.00 97 1014.4
20260507091554 3 250 0.0 0.0 0.00 0.00 0.00 98 1014.2
20260507090027 3 250 0.0 0.0 0.00 0.00 0.00 98 1014.1
20260507084551 3 250 0.0 0.0 0.00 0.00 0.00 98 1014.0
20260507083014 3 250 0.0 0.0 0.00 0.00 0.00 98 1014.3
20260507081534 3 250 0.0 0.0 0.00 0.00 0.00 98 1014.4
20260507080005 3 250 0.0 0.0 0.00 0.00 0.00 98 1014.3
20260507074522 3 250 0.0 0.0 0.00 0.00 0.00 97 1014.1
20260507073049 3 250 0.0 0.0 0.00 0.00 0.00 97 1013.9
20260507071529 3 250 0.0 0.0 0.00 0.00 0.00 97 1014.0
20260507070033 3 250 0.0 0.0 0.00 0.00 0.00 97 1014.2
20260507064549 3 240 0.0 0.0 0.00 0.00 0.00 97 1014.0
20260507063010 3 239 0.0 0.0 0.00 0.00 0.00 97 1014.2
20260507061520 4 240 0.0 0.0 0.00 0.00 0.00 97 1014.2
20260507060044 4 239 0.0 0.0 0.00 0.00 0.00 97 1014.4
20260507054510 4 239 0.0 0.0 0.00 0.00 0.00 97 1014.4
20260507053030 4 240 0.0 0.0 0.00 0.00 0.00 97 1014.5
20260507051600 4 239 0.0 0.0 0.00 0.00 0.00 97 1014.6
20260507050006 4 239 0.0 0.0 0.00 0.00 0.00 97 1014.6
20260507044531 4 239 0.0 0.0 0.00 0.00 0.00 97 1014.7
20260507043051 5 239 0.0 0.0 0.00 0.00 0.00 97 1014.8
20260507041514 5 239 0.0 0.0 0.00 0.00 0.00 97 1014.9
20260507040127 5 240 0.0 0.0 0.00 0.00 0.00 97 1014.8
20260507034529 5 239 0.0 0.0 0.00 0.00 0.00 97 1014.8
20260507033039 5 239 0.0 0.0 0.00 0.00 0.00 97 1014.7
20260507031541 5 240 0.0 0.0 0.00 0.00 0.00 97 1014.8
20260507030046 5 239 0.0 0.0 0.00 0.00 0.00 97 1014.8
20260507024503 5 239 0.0 0.0 0.00 0.00 0.00 97 1014.7
20260507023027 5 239 0.0 0.0 0.00 0.00 0.00 97 1014.6
20260507021544 5 240 0.0 0.0 0.00 0.00 0.00 97 1014.7
20260507020006 5 240 0.0 0.0 0.00 0.00 0.00 97 1015.1
20260507014525 5 240 0.0 0.0 0.00 0.00 0.00 97 1015.0
20260507013048 5 239 0.0 0.0 0.00 0.00 0.00 96 1014.9
20260507011552 6 240 0.0 0.0 0.00 0.00 0.00 96 1014.7
20260507010006 6 239 0.0 0.0 0.00 0.00 0.00 96 1014.4
20260507004538 6 239 0.0 0.0 0.00 0.00 0.00 96 1014.3
20260507003055 6 239 0.0 0.0 0.00 0.00 0.00 96 1014.3
20260507001513 6 239 0.0 0.0 0.00 0.00 0.00 95 1014.3
20260507000038 6 239 0.0 0.0 0.00 0.00 0.00 95 1014.1
20260506234557 6 239 0.0 0.0 0.00 0.00 0.00 93 1014.0
20260506233020 7 266 0.0 1.6 0.00 0.00 0.00 91 1014.1
20260506231541 7 352 0.0 1.6 0.00 0.00 0.00 95 1013.8
20260506230007 6 352 0.0 3.2 0.00 0.00 0.00 96 1013.7
20260506224526 6 311 0.0 1.6 0.00 0.00 0.00 97 1013.4
20260506223051 6 11 0.0 3.2 0.00 0.00 0.00 97 1013.4
20260506221511 6 352 0.0 4.8 0.00 0.00 0.00 97 1013.0
20260506220038 5 5 0.0 4.8 0.00 0.00 0.00 97 1013.1
20260506214551 5 300 0.0 3.2 0.00 0.00 0.00 97 1013.1
20260506213005 5 341 0.0 6.4 0.00 0.00 0.00 96 1012.7
20260506211513 5 328 1.6 6.4 0.00 0.00 0.00 96 1012.3
20260506210034 6 342 3.2 12.9 0.00 0.00 0.00 95 1012.1
20260506204550 8 271 1.6 4.8 0.00 0.00 0.00 96 1011.7
20260506203018 8 288 0.0 9.7 0.00 0.00 0.00 94 1011.3
20260506201533 10 352 0.0 0.0 0.00 0.00 0.00 93 1011.1
20260506194513 11 287 0.0 1.6 0.00 0.00 0.00 88 1011.0
20260506193038 11 8 0.0 1.6 0.00 0.00 0.00 89 1011.0
20260506191501 11 243 0.0 1.6 0.00 0.00 0.00 90 1011.0
20260506190023 10 277 0.0 1.6 0.00 0.00 0.00 90 1010.9
20260506184539 10 269 0.0 1.6 0.00 0.00 0.00 90 1011.1
20260506183111 11 145 0.0 3.2 0.00 0.00 0.00 91 1011.2
20260506181519 10 122 1.6 3.2 0.00 0.00 0.00 93 1011.0
20260506180029 10 207 0.0 3.2 0.00 0.00 0.00 95 1011.1
20260506174544 8 101 0.0 1.6 0.00 0.00 0.00 96 1011.1
20260506173009 8 124 0.0 0.0 0.00 0.00 0.00 96 1011.4
20260506171531 8 124 0.0 1.6 0.00 0.00 0.00 96 1011.4
20260506170046 8 124 0.0 1.6 0.00 0.00 0.00 97 1011.2
20260506164509 8 70 0.0 4.8 0.00 0.00 0.00 97 1011.1
20260506163032 7 94 0.0 4.8 0.00 0.00 0.00 97 1011.0
20260506161553 8 99 0.0 1.6 0.00 0.00 0.00 98 1011.4
20260506160014 8 111 0.0 0.0 0.00 0.00 0.00 98 1011.2
20260506154541 8 103 0.0 0.0 0.00 0.00 0.00 98 1011.1
20260506153009 7 89 0.0 1.6 0.00 0.00 0.00 98 1011.1
20260506151529 8 82 0.0 3.2 0.00 0.00 0.00 98 1010.9
20260506150057 7 84 0.0 1.6 0.00 0.00 0.00 98 1011.0
20260506144515 7 72 0.0 3.2 0.00 0.00 0.00 98 1010.8
20260506143039 7 65 0.0 1.6 0.00 0.00 0.00 98 1010.8
20260506141556 7 103 0.0 1.6 0.00 0.00 0.00 98 1010.9